GW0940 Weather Reports


time (UTC)temp
C
wind
direction
speed
KPH
gust
KPH
rain 1hr
cm
rain 24hr
cm
rain mn
cm
humidity
%
barometer
mb
20260510231257 22 158 11.3 12.9 0.00 0.00 0.00 65 1013.9
20260510230753 23 132 3.2 11.3 0.00 0.00 0.00 63 1013.5
20260510230248 23 151 3.2 4.8 0.00 0.00 0.00 59 1013.2
20260510225746 23 154 4.8 4.8 0.00 0.00 0.00 59 1013.4
20260510225241 23 255 0.0 3.2 0.00 0.00 0.00 56 1013.2
20260510224737 23 285 0.0 1.6 0.00 0.00 0.00 56 1013.0
20260510224233 23 157 1.6 3.2 0.00 0.00 0.00 54 1013.0
20260510223731 23 151 0.0 4.8 0.00 0.00 0.00 57 1012.9
20260510223228 24 331 0.0 1.6 0.00 0.00 0.00 53 1012.8
20260510222726 24 270 1.6 4.8 0.00 0.00 0.00 51 1012.8
20260510222222 24 319 0.0 3.2 0.00 0.00 0.00 52 1012.7
20260510221717 24 285 0.0 4.8 0.00 0.00 0.00 52 1012.9
20260510221215 25 0 0.0 3.2 0.00 0.00 0.00 52 1012.7
20260510220711 25 341 3.2 4.8 0.00 0.00 0.00 52 1012.6
20260510220206 25 270 4.8 6.4 0.00 0.00 0.00 51 1012.5
20260510215703 25 281 0.0 6.4 0.00 0.00 0.00 51 1012.7
20260510215202 25 180 3.2 6.4 0.00 0.00 0.00 51 1012.5
20260510214658 25 292 0.0 6.4 0.00 0.00 0.00 52 1012.6
20260510214155 25 261 3.2 4.8 0.00 0.00 0.00 52 1012.3
20260510213652 25 309 0.0 4.8 0.00 0.00 0.00 53 1012.3
20260510213148 25 338 3.2 4.8 0.00 0.00 0.00 53 1012.2
20260510212644 25 345 1.6 11.3 0.00 0.00 0.00 54 1012.3
20260510212142 25 354 0.0 6.4 0.00 0.00 0.00 54 1012.4
20260510211638 25 0 1.6 8.0 0.00 0.00 0.00 55 1012.3
20260510211133 25 97 0.0 4.8 0.00 0.00 0.00 55 1012.4
20260510210630 25 161 3.2 6.4 0.00 0.00 0.00 54 1012.2
20260510210125 25 352 0.0 6.4 0.00 0.00 0.00 56 1012.4
20260510205624 25 285 4.8 9.7 0.00 0.00 0.00 56 1012.3
20260510205120 25 309 3.2 11.3 0.00 0.00 0.00 56 1012.3
20260510204616 25 294 1.6 4.8 0.00 0.00 0.00 55 1012.1
20260510204114 26 334 1.6 4.8 0.00 0.00 0.00 54 1012.1
20260510203610 26 240 1.6 8.0 0.00 0.00 0.00 54 1012.2
20260510203107 26 151 1.6 4.8 0.00 0.00 0.00 54 1012.1
20260510202606 25 0 4.8 8.0 0.00 0.00 0.00 54 1012.2
20260510202102 25 276 8.0 8.0 0.00 0.00 0.00 54 1012.3
20260510201600 26 157 0.0 4.8 0.00 0.00 0.00 55 1012.2
20260510201057 26 143 3.2 9.7 0.00 0.00 0.00 54 1012.2
20260510200553 26 5 0.0 4.8 0.00 0.00 0.00 52 1012.3
20260510200051 27 320 3.2 4.8 0.00 0.00 0.00 50 1012.2
20260510195548 27 342 0.0 4.8 0.00 0.00 0.00 50 1012.4
20260510195044 27 7 0.0 4.8 0.00 0.00 0.00 50 1012.6
20260510194539 27 294 4.8 9.7 0.00 0.00 0.00 49 1012.7
20260510194036 28 237 0.0 8.0 0.00 0.00 0.00 44 1012.8
20260510193530 28 285 4.8 8.0 0.00 0.00 0.00 44 1012.7
20260510193026 28 336 3.2 6.4 0.00 0.00 0.00 43 1012.8
20260510192521 28 331 1.6 4.8 0.00 0.00 0.00 43 1013.1
20260510192017 27 2 6.4 6.4 0.00 0.00 0.00 44 1013.1
20260510191514 27 29 1.6 4.8 0.00 0.00 0.00 46 1013.1
20260510191011 28 270 3.2 8.0 0.00 0.00 0.00 45 1013.1
20260510190508 28 257 0.0 12.9 0.00 0.00 0.00 45 1013.3
20260510190005 27 319 3.2 9.7 0.00 0.00 0.00 46 1013.2
20260510185502 28 270 0.0 6.4 0.00 0.00 0.00 43 1013.3
20260510184959 28 283 3.2 4.8 0.00 0.00 0.00 43 1013.4
20260510184456 28 192 0.0 6.4 0.00 0.00 0.00 47 1013.1
20260510183951 27 279 0.0 8.0 0.00 0.00 0.00 46 1013.3
20260510183447 28 352 1.6 3.2 0.00 0.00 0.00 45 1013.3
20260510182947 27 157 1.6 1.6 0.00 0.00 0.00 47 1013.3
20260510182444 27 97 0.0 6.4 0.00 0.00 0.00 47 1013.2
20260510181939 27 342 3.2 6.4 0.00 0.00 0.00 46 1013.2
20260510181438 28 354 0.0 6.4 0.00 0.00 0.00 44 1013.2
20260510180933 28 151 0.0 4.8 0.00 0.00 0.00 49 1013.4
20260510180431 28 279 1.6 4.8 0.00 0.00 0.00 46 1013.5
20260510175927 27 291 1.6 6.4 0.00 0.00 0.00 47 1013.4
20260510175423 28 274 4.8 9.7 0.00 0.00 0.00 47 1013.5
20260510174919 28 337 4.8 9.7 0.00 0.00 0.00 45 1013.6
20260510174418 28 314 8.0 11.3 0.00 0.00 0.00 45 1013.3
20260510173914 28 289 3.2 4.8 0.00 0.00 0.00 46 1013.3
20260510173409 28 345 3.2 8.0 0.00 0.00 0.00 46 1013.3
20260510172906 28 286 8.0 11.3 0.00 0.00 0.00 46 1013.6
20260510172402 28 350 4.8 6.4 0.00 0.00 0.00 46 1013.3
20260510171858 28 332 6.4 8.0 0.00 0.00 0.00 47 1013.5
20260510171356 28 288 4.8 11.3 0.00 0.00 0.00 45 1013.9
20260510170852 28 283 0.0 6.4 0.00 0.00 0.00 45 1014.1
20260510170349 27 292 0.0 8.0 0.00 0.00 0.00 49 1013.9
20260510165844 27 287 4.8 8.0 0.00 0.00 0.00 48 1014.0
20260510165341 27 0 0.0 11.3 0.00 0.00 0.00 48 1013.9
20260510164839 27 318 4.8 6.4 0.00 0.00 0.00 50 1014.0
20260510164336 27 303 8.0 8.0 0.00 0.00 0.00 49 1014.1
20260510163835 27 283 3.2 6.4 0.00 0.00 0.00 49 1013.9
20260510163332 27 315 3.2 11.3 0.00 0.00 0.00 52 1014.0
20260510162826 27 291 4.8 8.0 0.00 0.00 0.00 51 1014.2
20260510162324 27 15 0.0 8.0 0.00 0.00 0.00 50 1014.0
20260510161819 26 304 0.0 11.3 0.00 0.00 0.00 50 1014.1
20260510161315 26 300 4.8 8.0 0.00 0.00 0.00 54 1014.1
20260510160812 27 290 4.8 8.0 0.00 0.00 0.00 52 1014.2
20260510160309 26 29 1.6 9.7 0.00 0.00 0.00 55 1014.2
20260510155803 26 250 3.2 11.3 0.00 0.00 0.00 55 1014.6
20260510155300 26 291 1.6 8.0 0.00 0.00 0.00 53 1014.4
20260510154755 27 300 1.6 8.0 0.00 0.00 0.00 54 1014.6
20260510154252 27 346 3.2 4.8 0.00 0.00 0.00 54 1014.4
20260510153746 27 345 0.0 6.4 0.00 0.00 0.00 55 1014.2
20260510153242 26 342 1.6 4.8 0.00 0.00 0.00 57 1014.6
20260510152739 26 287 8.0 9.7 0.00 0.00 0.00 57 1014.3
20260510152236 26 278 1.6 4.8 0.00 0.00 0.00 58 1014.2
20260510151732 26 266 4.8 6.4 0.00 0.00 0.00 60 1014.5
20260510151231 26 239 0.0 6.4 0.00 0.00 0.00 59 1014.5
20260510150726 26 315 3.2 6.4 0.00 0.00 0.00 60 1014.4
20260510150222 25 355 3.2 6.4 0.00 0.00 0.00 60 1014.2
20260510145718 25 237 3.2 8.0 0.00 0.00 0.00 63 1014.4
20260510145215 25 270 1.6 6.4 0.00 0.00 0.00 65 1014.3
20260510144711 26 238 0.0 6.4 0.00 0.00 0.00 65 1014.3
20260510144208 25 294 0.0 6.4 0.00 0.00 0.00 62 1014.2
20260510143703 25 309 4.8 4.8 0.00 0.00 0.00 62 1014.1
20260510143200 24 270 0.0 6.4 0.00 0.00 0.00 62 1014.3
20260510142656 25 20 0.0 4.8 0.00 0.00 0.00 65 1014.3
20260510142152 24 280 0.0 4.8 0.00 0.00 0.00 66 1014.0
20260510141650 23 0 1.6 4.8 0.00 0.00 0.00 64 1014.1
20260510141148 23 289 4.8 8.0 0.00 0.00 0.00 67 1013.9
20260510140644 22 297 4.8 4.8 0.00 0.00 0.00 66 1014.0
20260510140143 22 309 3.2 6.4 0.00 0.00 0.00 68 1014.0
20260510135638 22 307 3.2 6.4 0.00 0.00 0.00 69 1014.2
20260510135135 22 289 3.2 4.8 0.00 0.00 0.00 70 1014.0
20260510134632 22 319 3.2 4.8 0.00 0.00 0.00 69 1013.9
20260510134129 23 331 0.0 3.2 0.00 0.00 0.00 64 1014.0
20260510133626 22 180 0.0 3.2 0.00 0.00 0.00 68 1014.3
20260510133121 23 254 0.0 4.8 0.00 0.00 0.00 67 1014.1
20260510132618 22 336 3.2 6.4 0.00 0.00 0.00 67 1013.9
20260510132115 22 277 4.8 4.8 0.00 0.00 0.00 69 1014.1
20260510131612 22 5 0.0 3.2 0.00 0.00 0.00 70 1014.0
20260510131110 22 240 0.0 4.8 0.00 0.00 0.00 72 1013.9
20260510130606 21 280 6.4 6.4 0.00 0.00 0.00 73 1014.2
20260510130104 21 330 0.0 4.8 0.00 0.00 0.00 73 1013.9
20260510125600 21 346 1.6 3.2 0.00 0.00 0.00 74 1014.1
20260510125056 21 131 0.0 3.2 0.00 0.00 0.00 74 1014.3
20260510124553 21 345 0.0 1.6 0.00 0.00 0.00 74 1014.1
20260510124050 20 352 0.0 6.4 0.00 0.00 0.00 75 1014.1
20260510123545 21 352 0.0 4.8 0.00 0.00 0.00 75 1013.9
20260510123041 21 249 0.0 3.2 0.00 0.00 0.00 74 1013.9
20260510122537 20 281 0.0 4.8 0.00 0.00 0.00 78 1014.0
20260510122033 20 303 0.0 3.2 0.00 0.00 0.00 77 1013.7
20260510121531 20 250 0.0 3.2 0.00 0.00 0.00 79 1013.8
20260510121028 19 157 0.0 0.0 0.00 0.00 0.00 82 1013.7
20260510120525 18 166 0.0 3.2 0.00 0.00 0.00 85 1013.6
20260510120021 18 157 0.0 3.2 0.00 0.00 0.00 85 1013.8
20260510115518 17 151 0.0 0.0 0.00 0.00 0.00 89 1013.6
20260510115014 16 151 0.0 0.0 0.00 0.00 0.00 95 1013.6
20260510114510 16 0 0.0 0.0 0.00 0.00 0.00 99 1013.2
20260510114007 15 0 0.0 0.0 0.00 0.00 0.00 99 1013.5
20260510113502 13 0 0.0 3.2 0.00 0.00 0.00 99 1013.2
20260510113000 13 160 0.0 0.0 0.00 0.00 0.00 99 1013.4
20260510112457 13 148 0.0 3.2 0.00 0.00 0.00 99 1013.1
20260510111953 13 29 0.0 3.2 0.00 0.00 0.00 99 1013.2
20260510111449 12 0 0.0 1.6 0.00 0.00 0.00 99 1013.2
20260510110945 12 120 0.0 1.6 0.00 0.00 0.00 99 1013.0
20260510110442 12 120 0.0 3.2 0.00 0.00 0.00 99 1013.1
20260510105937 12 144 3.2 3.2 0.00 0.00 0.00 99 1012.9
20260510105433 11 157 0.0 0.0 0.00 0.00 0.00 99 1012.9
20260510104929 11 165 0.0 3.2 0.00 0.00 0.00 99 1012.7
20260510104426 11 151 0.0 3.2 0.00 0.00 0.00 99 1012.7
20260510103922 11 120 0.0 0.0 0.00 0.00 0.00 99 1012.7
20260510103420 11 126 0.0 1.6 0.00 0.00 0.00 99 1012.8
20260510102914 11 264 0.0 0.0 0.00 0.00 0.00 99 1012.4
20260510102410 11 154 1.6 3.2 0.00 0.00 0.00 99 1012.4
20260510101902 11 132 0.0 3.2 0.00 0.00 0.00 99 1012.4
20260510101400 11 135 0.0 3.2 0.00 0.00 0.00 99 1012.4
20260510100856 11 99 0.0 3.2 0.00 0.00 0.00 99 1012.4
20260510100354 11 139 3.2 3.2 0.00 0.00 0.00 99 1012.7
20260510095850 11 120 0.0 0.0 0.00 0.00 0.00 99 1012.3
20260510095345 11 139 0.0 3.2 0.00 0.00 0.00 99 1012.3
20260510094844 11 131 0.0 4.8 0.00 0.00 0.00 99 1012.3
20260510094340 12 109 0.0 3.2 0.00 0.00 0.00 99 1012.1
20260510093836 12 98 0.0 1.6 0.00 0.00 0.00 99 1012.1
20260510093332 12 99 0.0 0.0 0.00 0.00 0.00 99 1011.9
20260510092829 12 99 0.0 0.0 0.00 0.00 0.00 99 1011.9
20260510092324 12 114 0.0 0.0 0.00 0.00 0.00 99 1011.7
20260510091820 11 114 0.0 0.0 0.00 0.00 0.00 99 1012.0
20260510091318 11 114 1.6 1.6 0.00 0.00 0.00 99 1011.9
20260510090814 11 111 0.0 3.2 0.00 0.00 0.00 99 1011.7
20260510090311 11 145 0.0 0.0 0.00 0.00 0.00 99 1011.8
20260510085807 11 145 1.6 1.6 0.00 0.00 0.00 99 1011.6
20260510085301 11 151 0.0 0.0 0.00 0.00 0.00 99 1011.6
20260510084757 11 151 0.0 3.2 0.00 0.00 0.00 99 1011.7
20260510084254 12 145 0.0 0.0 0.00 0.00 0.00 99 1011.5
20260510083751 12 145 0.0 3.2 0.00 0.00 0.00 99 1011.7
20260510083248 12 148 0.0 3.2 0.00 0.00 0.00 99 1011.4
20260510082743 12 106 0.0 0.0 0.00 0.00 0.00 99 1011.5
20260510082240 12 120 0.0 0.0 0.00 0.00 0.00 99 1011.6
20260510081739 12 157 0.0 0.0 0.00 0.00 0.00 99 1011.5
20260510081236 12 157 1.6 3.2 0.00 0.00 0.00 99 1011.5
20260510080731 12 144 0.0 3.2 0.00 0.00 0.00 99 1011.2
20260510080227 12 81 0.0 0.0 0.00 0.00 0.00 99 1011.2
20260510075723 12 120 0.0 3.2 0.00 0.00 0.00 99 1011.2
20260510075221 12 172 0.0 0.0 0.00 0.00 0.00 99 1011.1
20260510074718 12 172 0.0 3.2 0.00 0.00 0.00 99 1011.0
20260510074215 13 98 0.0 1.6 0.00 0.00 0.00 99 1010.9
20260510073711 13 148 0.0 3.2 0.00 0.00 0.00 99 1011.0
20260510073207 13 173 0.0 1.6 0.00 0.00 0.00 99 1011.0
20260510072703 13 261 3.2 4.8 0.00 0.00 0.00 99 1011.0
20260510072200 13 114 0.0 0.0 0.00 0.00 0.00 99 1010.7
20260510071656 13 246 0.0 3.2 0.00 0.00 0.00 98 1010.9
20260510071153 13 151 0.0 3.2 0.00 0.00 0.00 98 1010.9
20260510070650 13 114 0.0 0.0 0.00 0.00 0.00 98 1010.9
20260510070148 13 270 0.0 0.0 0.00 0.00 0.00 98 1010.8
20260510065643 13 270 0.0 0.0 0.00 0.00 0.00 98 1010.8
20260510065139 13 270 0.0 1.6 0.00 0.00 0.00 98 1010.7
20260510064636 13 157 0.0 0.0 0.00 0.00 0.00 98 1010.7
20260510064133 13 114 0.0 0.0 0.00 0.00 0.00 98 1010.9
20260510063630 13 114 0.0 1.6 0.00 0.00 0.00 97 1010.9
20260510063127 13 264 0.0 0.0 0.00 0.00 0.00 97 1010.9
20260510062622 13 261 0.0 0.0 0.00 0.00 0.00 97 1010.9
20260510062118 13 81 0.0 0.0 0.00 0.00 0.00 97 1010.9
20260510061614 13 157 0.0 4.8 0.00 0.00 0.00 97 1010.8
20260510061112 14 151 0.0 3.2 0.00 0.00 0.00 96 1011.0
20260510060608 14 160 0.0 3.2 0.00 0.00 0.00 96 1010.7
20260510060105 14 168 1.6 3.2 0.00 0.00 0.00 95 1010.7
20260510055600 15 148 0.0 0.0 0.00 0.00 0.00 95 1010.7
20260510055059 15 148 0.0 0.0 0.00 0.00 0.00 94 1010.9
20260510054555 15 151 0.0 1.6 0.00 0.00 0.00 94 1010.8
20260510054050 15 188 0.0 0.0 0.00 0.00 0.00 93 1010.8
20260510053549 15 172 0.0 0.0 0.00 0.00 0.00 93 1010.8
20260510053047 15 151 0.0 3.2 0.00 0.00 0.00 93 1010.8
20260510052542 15 90 0.0 0.0 0.00 0.00 0.00 91 1011.0
20260510052039 15 114 0.0 1.6 0.00 0.00 0.00 91 1011.0
20260510051534 16 143 0.0 3.2 0.00 0.00 0.00 91 1010.7
20260510051031 16 105 0.0 3.2 0.00 0.00 0.00 90 1010.6
20260510050528 16 60 0.0 4.8 0.00 0.00 0.00 90 1011.0
20260510050026 16 103 0.0 1.6 0.00 0.00 0.00 91 1010.9
20260510045523 15 60 0.0 0.0 0.00 0.00 0.00 92 1010.8
20260510045018 15 29 0.0 4.8 0.00 0.00 0.00 93 1010.7
20260510044515 15 140 0.0 3.2 0.00 0.00 0.00 94 1010.6
20260510044013 15 15 1.6 1.6 0.00 0.00 0.00 95 1010.6
20260510043508 15 90 1.6 1.6 0.00 0.00 0.00 97 1010.7
20260510043003 14 90 0.0 0.0 0.00 0.00 0.00 98 1010.7
20260510042458 14 114 0.0 1.6 0.00 0.00 0.00 98 1010.8
20260510041953 14 157 0.0 1.6 0.00 0.00 0.00 99 1010.8
20260510041450 14 83 0.0 0.0 0.00 0.00 0.00 99 1011.1
20260510040948 14 103 0.0 3.2 0.00 0.00 0.00 99 1010.7
20260510040444 14 126 0.0 1.6 0.00 0.00 0.00 99 1010.7
20260510035940 14 99 0.0 0.0 0.00 0.00 0.00 99 1010.8
20260510035436 14 151 0.0 0.0 0.00 0.00 0.00 99 1010.6
20260510034931 14 172 0.0 3.2 0.00 0.00 0.00 99 1010.5
20260510034430 14 151 0.0 0.0 0.00 0.00 0.00 99 1010.6
20260510033926 14 151 0.0 0.0 0.00 0.00 0.00 99 1010.6
20260510033422 14 151 0.0 0.0 0.00 0.00 0.00 99 1010.5
20260510032919 14 145 0.0 0.0 0.00 0.00 0.00 98 1010.6
20260510032416 14 114 0.0 1.6 0.00 0.00 0.00 98 1010.3
20260510031911 15 139 0.0 3.2 0.00 0.00 0.00 98 1010.6
20260510031406 15 157 0.0 0.0 0.00 0.00 0.00 98 1010.5
20260510030901 15 160 0.0 0.0 0.00 0.00 0.00 98 1010.4
20260510030357 15 160 0.0 0.0 0.00 0.00 0.00 98 1010.4
20260510025855 15 160 0.0 0.0 0.00 0.00 0.00 98 1010.4
20260510025353 15 160 0.0 1.6 0.00 0.00 0.00 98 1010.4
20260510024849 15 157 0.0 3.2 0.00 0.00 0.00 98 1010.3
20260510024346 15 157 1.6 1.6 0.00 0.00 0.00 98 1010.3
20260510023842 15 172 0.0 0.0 0.00 0.00 0.00 98 1010.3
20260510023339 15 172 0.0 0.0 0.00 0.00 0.00 97 1010.2
20260510022837 15 157 0.0 0.0 0.00 0.00 0.00 97 1010.3
20260510022335 15 157 0.0 0.0 0.00 0.00 0.00 97 1010.1
20260510021834 15 160 0.0 0.0 0.00 0.00 0.00 97 1009.9
20260510021333 15 172 0.0 0.0 0.00 0.00 0.00 96 1010.0
20260510020828 15 157 0.0 1.6 0.00 0.00 0.00 96 1010.0
20260510020323 16 157 0.0 0.0 0.00 0.00 0.00 96 1010.0
20260510015819 16 157 0.0 0.0 0.00 0.00 0.00 95 1009.9
20260510015315 16 157 0.0 0.0 0.00 0.00 0.00 95 1010.1
20260510014810 16 157 0.0 0.0 0.00 0.00 0.00 95 1009.9
20260510014308 16 157 0.0 0.0 0.00 0.00 0.00 95 1009.7
20260510013804 16 145 0.0 1.6 0.00 0.00 0.00 94 1009.7
20260510013259 16 157 0.0 0.0 0.00 0.00 0.00 93 1009.4
20260510012755 16 157 0.0 0.0 0.00 0.00 0.00 93 1009.5
20260510012250 16 157 1.6 1.6 0.00 0.00 0.00 91 1009.5
20260510011749 16 157 0.0 0.0 0.00 0.00 0.00 92 1009.4
20260510011245 17 157 0.0 0.0 0.00 0.00 0.00 92 1009.4
20260510010742 17 151 0.0 0.0 0.00 0.00 0.00 90 1009.4
20260510010239 17 151 0.0 0.0 0.00 0.00 0.00 90 1009.2
20260510005736 17 151 0.0 0.0 0.00 0.00 0.00 90 1009.5
20260510005232 17 172 0.0 0.0 0.00 0.00 0.00 89 1009.3
20260510004730 17 157 0.0 3.2 0.00 0.00 0.00 87 1009.2
20260510004228 18 106 0.0 0.0 0.00 0.00 0.00 86 1009.1
20260510003725 18 106 0.0 0.0 0.00 0.00 0.00 85 1008.8
20260510003221 18 157 0.0 0.0 0.00 0.00 0.00 82 1009.0
20260510002720 18 157 0.0 1.6 0.00 0.00 0.00 83 1009.1
20260510002217 19 172 0.0 0.0 0.00 0.00 0.00 79 1009.0
20260510001714 20 254 0.0 1.6 0.00 0.00 0.00 77 1008.9
20260510001213 20 97 0.0 0.0 0.00 0.00 0.00 76 1009.0
20260510000708 20 279 0.0 0.0 0.00 0.00 0.00 75 1008.8
20260510000206 20 279 0.0 0.0 0.00 0.00 0.00 75 1008.9
20260509235702 20 262 3.2 4.8 0.00 0.00 0.00 74 1008.9
20260509235158 21 297 0.0 1.6 0.00 0.00 0.00 73 1008.8
20260509234655 21 337 0.0 1.6 0.00 0.00 0.00 73 1008.8
20260509234152 21 345 0.0 3.2 0.00 0.00 0.00 73 1008.6
20260509233650 21 270 0.0 1.6 0.00 0.00 0.00 71 1008.5
20260509233147 22 262 0.0 0.0 0.00 0.00 0.00 70 1008.6
20260509232643 22 255 0.0 3.2 0.00 0.00 0.00 68 1008.5
20260509232140 22 276 0.0 4.8 0.00 0.00 0.00 66 1008.5
20260509231637 23 270 0.0 3.2 0.00 0.00 0.00 61 1008.7